,,Stat5,,Stat1,,Stat2,,Stat3,,Stat4,,Wind1,,Wind1,
time,status,PA1M_AVG,status,PR1M_SUM,status,RH1M_AVG,status,SR1M_AVG,status,TA1M_AVG,status,W1dAve1m,status,W1sAve1m,
2003-03-18, 00:00:01,VALID,921.076,VALID,0,VALID,99.6722,VALID,-0.0339617,VALID,19.7101,VALID,346,VALID,0,
2003-03-18, 00:01:00,VALID,921.076,VALID,0,VALID,99.6735,VALID,-0.0339617,VALID,19.7069,VALID,346,VALID,0,
2003-03-18, 00:02:00,VALID,921.067,VALID,0,VALID,99.6785,VALID,-0.0509425,VALID,19.6771,VALID,351,VALID,0.213108,
2003-03-18, 00:03:00,VALID,921.057,VALID,0,VALID,99.6785,VALID,-0.0169808,VALID,19.6773,VALID,71,VALID,0.383247,
2003-03-18, 00:04:00,VALID,921.051,VALID,0,VALID,99.6722,VALID,-0.0339617,VALID,19.6612,VALID,136,VALID,0.471278,
2003-03-18, 00:05:00,VALID,921.019,VALID,0,VALID,99.6709,VALID,-0.0509425,VALID,19.6485,VALID,141,VALID,0.589286,
2003-03-18, 00:06:00,VALID,920.997,VALID,0,VALID,99.6722,VALID,-0.0169808,VALID,19.6251,VALID,127,VALID,0.576723,
2003-03-18, 00:07:00,VALID,920.989,VALID,0,VALID,99.69,VALID,0.0169808,VALID,19.6309,VALID,134,VALID,0.741765,
2003-03-18, 00:08:00,VALID,920.978,VALID,0,VALID,99.7014,VALID,0.0169808,VALID,19.6475,VALID,118,VALID,0.791324,
2003-03-18, 00:09:00,VALID,920.979,VALID,0,VALID,99.6976,VALID,0.0169808,VALID,19.6373,VALID,103,VALID,0.864509,
2003-03-18, 00:10:00,VALID,920.981,VALID,0,VALID,99.7167,VALID,0.0169808,VALID,19.6314,VALID,90,VALID,0.691707,
2003-03-18, 00:11:00,VALID,920.985,VALID,0,VALID,99.7103,VALID,0.0169808,VALID,19.6346,VALID,84,VALID,0.81108,
2003-03-18, 00:12:00,VALID,920.966,VALID,0,VALID,99.7078,VALID,0,VALID,19.6184,VALID,68,VALID,0.604167,
2003-03-18, 00:13:00,VALID,920.949,VALID,0,VALID,99.704,VALID,0,VALID,19.5864,VALID,86,VALID,0.56065,
2003-03-18, 00:14:00,VALID,920.939,VALID,0,VALID,99.7027,VALID,0,VALID,19.5506,VALID,93,VALID,0.620313,
2003-03-18, 00:15:00,VALID,920.906,VALID,0,VALID,99.704,VALID,0.0169808,VALID,19.5282,VALID,106,VALID,0.445313,
2003-03-18, 00:16:00,VALID,920.877,VALID,0,VALID,99.7091,VALID,0,VALID,19.525,VALID,136,VALID,0.405816,
2003-03-18, 00:17:00,VALID,920.843,VALID,0,VALID,99.7154,VALID,0.0169808,VALID,19.5083,VALID,152,VALID,0.440321,
2003-03-18, 00:18:00,VALID,920.813,VALID,0,VALID,99.7332,VALID,0,VALID,19.5317,VALID,141,VALID,0.541131,
2003-03-18, 00:19:00,VALID,920.791,VALID,0,VALID,99.7396,VALID,0,VALID,19.5309,VALID,136,VALID,0.58817,
2003-03-18, 00:20:00,VALID,920.773,VALID,0,VALID,99.7345,VALID,0,VALID,19.5312,VALID,138,VALID,0.721955,
2003-03-18, 00:21:00,VALID,920.749,VALID,0,VALID,99.7383,VALID,0.0169808,VALID,19.5374,VALID,137,VALID,0.755279,
2003-03-18, 00:22:00,VALID,920.726,VALID,0,VALID,99.737,VALID,0,VALID,19.5411,VALID,149,VALID,0.665913,
2003-03-18, 00:23:00,VALID,920.714,VALID,0,VALID,99.7523,VALID,0,VALID,19.5541,VALID,122,VALID,0.647545,
2003-03-18, 00:24:00,VALID,920.683,VALID,0,VALID,99.7485,VALID,0,VALID,19.557,VALID,153,VALID,0.957131,
2003-03-18, 00:25:00,VALID,920.648,VALID,0,VALID,99.7574,VALID,0,VALID,19.5831,VALID,148,VALID,1.01515,
2003-03-18, 00:26:00,VALID,920.614,VALID,0,VALID,99.765,VALID,-0.0169808,VALID,19.6092,VALID,103,VALID,0.332682,
2003-03-18, 00:27:00,VALID,920.574,VALID,0,VALID,99.7599,VALID,0.0169808,VALID,19.6212,VALID,139,VALID,0.545436,
2003-03-18, 00:28:00,VALID,920.558,VALID,0,VALID,99.7587,VALID,0,VALID,19.6279,VALID,124,VALID,0.327344,
2003-03-18, 00:29:00,VALID,920.571,VALID,0,VALID,99.7688,VALID,0.0169808,VALID,19.6542,VALID,124,VALID,0.670703,
2003-03-18, 00:30:00,VALID,920.573,VALID,0,VALID,99.7612,VALID,0,VALID,19.6607,VALID,96,VALID,1.07856,
2003-03-18, 00:31:00,VALID,920.588,VALID,0,VALID,99.7675,VALID,-0.0169808,VALID,19.6637,VALID,86,VALID,0.873698,
2003-03-18, 00:32:00,VALID,920.61,VALID,0,VALID,99.7637,VALID,0,VALID,19.6768,VALID,41,VALID,0.961857,
2003-03-18, 00:33:00,VALID,920.613,VALID,0,VALID,99.7625,VALID,0,VALID,19.6604,VALID,30,VALID,1.09643,
2003-03-18, 00:34:00,VALID,920.623,VALID,0,VALID,99.765,VALID,-0.0169808,VALID,19.6793,VALID,22,VALID,0.879407,
2003-03-18, 00:35:00,VALID,920.612,VALID,0,VALID,99.7714,VALID,0.0169808,VALID,19.6699,VALID,33,VALID,0.932221,
2003-03-18, 00:36:00,VALID,920.612,VALID,0,VALID,99.7726,VALID,0.0339617,VALID,19.6838,VALID,17,VALID,1.00247,
2003-03-18, 00:37:00,VALID,920.61,VALID,0,VALID,99.7663,VALID,0.0339617,VALID,19.6572,VALID,6,VALID,1.14152,
2003-03-18, 00:38:00,VALID,920.604,VALID,0,VALID,99.7675,VALID,0.0339617,VALID,19.6184,VALID,356,VALID,0.929688,
2003-03-18, 00:39:00,VALID,920.599,VALID,0,VALID,99.7599,VALID,0.0509425,VALID,19.5928,VALID,1,VALID,0.716146,
2003-03-18, 00:40:00,VALID,920.592,VALID,0,VALID,99.7548,VALID,0.0339617,VALID,19.5799,VALID,3,VALID,0.527995,
2003-03-18, 00:41:00,VALID,920.581,VALID,0,VALID,99.7688,VALID,0.0509425,VALID,19.5598,VALID,6,VALID,0.537829,
2003-03-18, 00:42:00,VALID,920.565,VALID,0,VALID,99.7599,VALID,0.0339617,VALID,19.5401,VALID,5,VALID,0.525586,
2003-03-18, 00:43:00,VALID,920.55,VALID,0,VALID,99.7701,VALID,0.0339617,VALID,19.5598,VALID,17,VALID,0.510938,
2003-03-18, 00:44:00,VALID,920.534,VALID,0,VALID,99.7739,VALID,0.0169808,VALID,19.5667,VALID,43,VALID,0.54852,
2003-03-18, 00:45:00,VALID,920.512,VALID,0,VALID,99.7765,VALID,0,VALID,19.5702,VALID,54,VALID,0.624566,
2003-03-18, 00:46:00,VALID,920.488,VALID,0,VALID,99.7752,VALID,0.0339617,VALID,19.5603,VALID,67,VALID,0.596967,
2003-03-18, 00:47:00,VALID,920.464,VALID,0,VALID,99.7765,VALID,0.0169808,VALID,19.5406,VALID,91,VALID,0.74375,
2003-03-18, 00:48:00,VALID,920.45,VALID,0,VALID,99.7777,VALID,0.0339617,VALID,19.5138,VALID,97,VALID,0.822917,
2003-03-18, 00:49:00,VALID,920.443,VALID,0,VALID,99.779,VALID,0.0509425,VALID,19.5242,VALID,101,VALID,0.872044,
2003-03-18, 00:50:00,VALID,920.448,VALID,0,VALID,99.7765,VALID,0.0509425,VALID,19.5213,VALID,102,VALID,0.619449,
2003-03-18, 00:51:00,VALID,920.452,VALID,0,VALID,99.7765,VALID,0.0339617,VALID,19.5178,VALID,102,VALID,0.55,
2003-03-18, 00:52:00,VALID,920.449,VALID,0,VALID,99.7815,VALID,-0.0679233,VALID,19.5285,VALID,89,VALID,0.831731,
2003-03-18, 00:53:00,VALID,920.466,VALID,0,VALID,99.7866,VALID,-0.0679233,VALID,19.5451,VALID,72,VALID,0.495975,
2003-03-18, 00:54:00,VALID,920.481,VALID,0,VALID,99.7854,VALID,-0.0169808,VALID,19.5446,VALID,91,VALID,0.732639,
2003-03-18, 00:55:00,VALID,920.49,VALID,0,VALID,99.7828,VALID,-0.0679233,VALID,19.5349,VALID,89,VALID,0.84889,
2003-03-18, 00:56:00,VALID,920.478,VALID,0,VALID,99.7917,VALID,-0.0679233,VALID,19.5357,VALID,90,VALID,0.810352,
2003-03-18, 00:57:00,VALID,920.49,VALID,0,VALID,99.8006,VALID,-0.0169808,VALID,19.5289,VALID,100,VALID,0.796094,
2003-03-18, 00:58:00,VALID,920.47,VALID,0,VALID,99.7815,VALID,-0.0849042,VALID,19.5386,VALID,123,VALID,0.769748,
2003-03-18, 00:59:00,VALID,920.451,VALID,0,VALID,99.7892,VALID,-0.0509425,VALID,19.555,VALID,135,VALID,0.774957,
2003-03-18, 01:00:00,VALID,920.418,VALID,0,VALID,99.8044,VALID,-0.0339617,VALID,19.5583,VALID,112,VALID,0.685202,
2003-03-18, 01:01:00,VALID,920.397,VALID,0,VALID,99.7981,VALID,-0.0849042,VALID,19.5739,VALID,96,VALID,0.390402,
2003-03-18, 01:02:00,VALID,920.358,VALID,0,VALID,99.8032,VALID,-0.0849042,VALID,19.5836,VALID,130,VALID,0.567708,
2003-03-18, 01:03:00,VALID,920.333,VALID,0,VALID,99.8006,VALID,-0.0509425,VALID,19.5973,VALID,134,VALID,0.460304,
2003-03-18, 01:04:00,VALID,920.298,VALID,0,VALID,99.8006,VALID,-0.0679233,VALID,19.5809,VALID,164,VALID,0.534334,
2003-03-18, 01:05:00,VALID,920.278,VALID,0,VALID,99.8044,VALID,-0.0849042,VALID,19.5878,VALID,136,VALID,0.438393,
2003-03-18, 01:06:00,VALID,920.263,VALID,0,VALID,99.8006,VALID,-0.0849042,VALID,19.5908,VALID,144,VALID,0.595353,
2003-03-18, 01:07:00,VALID,920.258,VALID,0,VALID,99.7917,VALID,-0.0679233,VALID,19.5809,VALID,141,VALID,0.192708,
2003-03-18, 01:08:00,VALID,920.257,VALID,0,VALID,99.8006,VALID,-0.0339617,VALID,19.5846,VALID,141,VALID,0,
2003-03-18, 01:09:00,VALID,920.253,VALID,0,VALID,99.8082,VALID,-0.0509425,VALID,19.5804,VALID,141,VALID,0,
2003-03-18, 01:10:00,VALID,920.228,VALID,0,VALID,99.8006,VALID,-0.0339617,VALID,19.5769,VALID,141,VALID,0,
2003-03-18, 01:11:00,VALID,920.225,VALID,0,VALID,99.8032,VALID,-0.0339617,VALID,19.5839,VALID,141,VALID,0,
2003-03-18, 01:12:00,VALID,920.196,VALID,0,VALID,99.7993,VALID,-0.0169808,VALID,19.5839,VALID,141,VALID,0,
2003-03-18, 01:13:00,VALID,920.163,VALID,0,VALID,99.8044,VALID,-0.0339617,VALID,19.571,VALID,141,VALID,0.0195313,
2003-03-18, 01:14:00,VALID,920.125,VALID,0,VALID,99.8006,VALID,-0.0339617,VALID,19.5677,VALID,141,VALID,0.0149357,
2003-03-18, 01:15:00,VALID,920.082,VALID,0,VALID,99.807,VALID,-0.0509425,VALID,19.561,VALID,141,VALID,0,
2003-03-18, 01:16:00,VALID,920.053,VALID,0,VALID,99.8019,VALID,-0.0509425,VALID,19.558,VALID,141,VALID,0.0606971,
2003-03-18, 01:17:00,VALID,920.03,VALID,0,VALID,99.7968,VALID,-0.0849042,VALID,19.5513,VALID,135,VALID,0.287162,
2003-03-18, 01:18:00,VALID,920.024,VALID,0,VALID,99.8019,VALID,-0.0339617,VALID,19.5384,VALID,113,VALID,0.388569,
2003-03-18, 01:19:00,VALID,920.025,VALID,0,VALID,99.7968,VALID,-0.0339617,VALID,19.5058,VALID,98,VALID,0.443973,
2003-03-18, 01:20:00,VALID,920.033,VALID,0,VALID,99.8006,VALID,-0.0509425,VALID,19.4835,VALID,86,VALID,0.432692,
2003-03-18, 01:21:00,VALID,920.028,VALID,0,VALID,99.8044,VALID,-0.0679233,VALID,19.4549,VALID,86,VALID,0.268229,
2003-03-18, 01:22:00,VALID,920.033,VALID,0,VALID,99.7968,VALID,0,VALID,19.4179,VALID,86,VALID,0,
2003-03-18, 01:23:00,VALID,920.017,VALID,0,VALID,99.8057,VALID,0.0679233,VALID,19.3918,VALID,86,VALID,0.0678454,
2003-03-18, 01:24:00,VALID,920.016,VALID,0,VALID,99.8057,VALID,0.0509425,VALID,19.3821,VALID,35,VALID,0.266211,
2003-03-18, 01:25:00,VALID,920.016,VALID,0,VALID,99.8032,VALID,0.0339617,VALID,19.4054,VALID,323,VALID,0.339453,
2003-03-18, 01:26:00,VALID,920.008,VALID,0,VALID,99.8032,VALID,0.0509425,VALID,19.4144,VALID,322,VALID,0.142361,
2003-03-18, 01:27:00,VALID,919.99,VALID,0,VALID,99.8082,VALID,0.0679233,VALID,19.4146,VALID,322,VALID,0,
2003-03-18, 01:28:00,VALID,919.992,VALID,0,VALID,99.8032,VALID,0.0679233,VALID,19.4015,VALID,322,VALID,0,
2003-03-18, 01:29:00,VALID,919.981,VALID,0,VALID,99.8044,VALID,0.0169808,VALID,19.3925,VALID,13,VALID,0.289286,
2003-03-18, 01:30:00,VALID,919.966,VALID,0,VALID,99.7993,VALID,0.0169808,VALID,19.3438,VALID,59,VALID,0.627003,
2003-03-18, 01:31:00,VALID,919.957,VALID,0,VALID,99.8133,VALID,0.0339617,VALID,19.3055,VALID,61,VALID,0.642948,
2003-03-18, 01:32:00,VALID,919.939,VALID,0,VALID,99.8146,VALID,0.0339617,VALID,19.2663,VALID,72,VALID,0.665296,
2003-03-18, 01:33:00,VALID,919.927,VALID,0,VALID,99.7993,VALID,0.0169808,VALID,19.2441,VALID,74,VALID,0.566741,
2003-03-18, 01:34:00,VALID,919.902,VALID,0,VALID,99.8095,VALID,0.0339617,VALID,19.2146,VALID,74,VALID,0.411258,
2003-03-18, 01:35:00,VALID,919.874,VALID,0,VALID,99.8082,VALID,0.0509425,VALID,19.1986,VALID,74,VALID,0.0906724,
2003-03-18, 01:36:00,VALID,919.85,VALID,0,VALID,99.807,VALID,0.0169808,VALID,19.1462,VALID,74,VALID,0,
2003-03-18, 01:37:00,VALID,919.827,VALID,0,VALID,99.807,VALID,-0.0169808,VALID,19.1216,VALID,32,VALID,0.329359,
2003-03-18, 01:38:00,VALID,919.797,VALID,0,VALID,99.8184,VALID,-0.0509425,VALID,19.1646,VALID,346,VALID,0.488281,
2003-03-18, 01:39:00,VALID,919.759,VALID,0,VALID,99.8121,VALID,-0.0169808,VALID,19.1805,VALID,314,VALID,0.504102,
2003-03-18, 01:40:00,VALID,919.736,VALID,0,VALID,99.8248,VALID,-0.0169808,VALID,19.2031,VALID,315,VALID,0.433377,
2003-03-18, 01:41:00,VALID,919.69,VALID,0,VALID,99.8197,VALID,-0.0679233,VALID,19.2063,VALID,316,VALID,0.0737847,
2003-03-18, 01:42:00,VALID,919.669,VALID,0,VALID,99.8235,VALID,-0.0339617,VALID,19.2098,VALID,316,VALID,0.0289522,
2003-03-18, 01:43:00,VALID,919.641,VALID,0,VALID,99.8197,VALID,-0.0679233,VALID,19.2068,VALID,316,VALID,0.0828125,
2003-03-18, 01:44:00,VALID,919.631,VALID,0,VALID,99.8286,VALID,-0.101885,VALID,19.2036,VALID,316,VALID,0.100561,
2003-03-18, 01:45:00,VALID,919.611,VALID,0,VALID,99.8248,VALID,-0.0679233,VALID,19.2202,VALID,316,VALID,0.00190034,
2003-03-18, 01:46:00,VALID,919.601,VALID,0,VALID,99.8388,VALID,-0.0509425,VALID,19.1583,VALID,316,VALID,0.0789474,
2003-03-18, 01:47:00,VALID,919.603,VALID,0,VALID,99.8324,VALID,-0.0339617,VALID,19.0965,VALID,316,VALID,0.215848,
2003-03-18, 01:48:00,VALID,919.607,VALID,0,VALID,99.8222,VALID,-0.0509425,VALID,19.0413,VALID,316,VALID,0.193109,
2003-03-18, 01:49:00,VALID,919.604,VALID,0,VALID,99.8248,VALID,-0.0169808,VALID,19.006,VALID,316,VALID,0,
2003-03-18, 01:50:00,VALID,919.586,VALID,0,VALID,99.826,VALID,-0.0679233,VALID,18.9831,VALID,316,VALID,0,
2003-03-18, 01:51:00,VALID,919.589,VALID,0,VALID,99.8324,VALID,-0.0509425,VALID,18.9702,VALID,316,VALID,0,
2003-03-18, 01:52:00,VALID,919.568,VALID,0,VALID,99.8388,VALID,-0.0509425,VALID,18.9742,VALID,316,VALID,0,
2003-03-18, 01:53:00,VALID,919.571,VALID,0,VALID,99.8426,VALID,-0.0339617,VALID,18.9638,VALID,316,VALID,0,
2003-03-18, 01:54:00,VALID,919.602,VALID,0,VALID,99.8451,VALID,-0.0509425,VALID,18.9804,VALID,316,VALID,0,
2003-03-18, 01:55:00,VALID,919.607,VALID,0,VALID,99.8426,VALID,-0.0509425,VALID,18.9806,VALID,316,VALID,0,
2003-03-18, 01:56:00,VALID,919.621,VALID,0,VALID,99.8451,VALID,-0.0679233,VALID,18.997,VALID,316,VALID,0,
2003-03-18, 01:57:00,VALID,919.636,VALID,0,VALID,99.8451,VALID,-0.0509425,VALID,18.9901,VALID,316,VALID,0.0513393,
2003-03-18, 01:58:00,VALID,919.634,VALID,0,VALID,99.8489,VALID,-0.0509425,VALID,18.9868,VALID,316,VALID,0,
2003-03-18, 01:59:00,VALID,919.635,VALID,0,VALID,99.854,VALID,-0.0849042,VALID,18.9841,VALID,316,VALID,0.0244932,
2003-03-18, 02:00:00,VALID,919.63,VALID,0,VALID,99.8553,VALID,-0.0509425,VALID,18.9801,VALID,316,VALID,0,
2003-03-18, 02:01:00,VALID,919.633,VALID,0,VALID,99.8527,VALID,-0.101885,VALID,18.9739,VALID,316,VALID,0,
2003-03-18, 02:02:00,VALID,919.638,VALID,0,VALID,99.8527,VALID,-0.0509425,VALID,18.958,VALID,316,VALID,0,
2003-03-18, 02:03:00,VALID,919.639,VALID,0,VALID,99.8566,VALID,-0.0679233,VALID,18.9553,VALID,316,VALID,0.120502,
2003-03-18, 02:04:00,VALID,919.645,VALID,0,VALID,99.8527,VALID,-0.101885,VALID,18.946,VALID,316,VALID,0.0279948,
2003-03-18, 02:05:00,VALID,919.66,VALID,0,VALID,99.854,VALID,-0.0849042,VALID,18.9061,VALID,316,VALID,0.402549,
2003-03-18, 02:06:00,VALID,919.653,VALID,0,VALID,99.8438,VALID,-0.0849042,VALID,18.8969,VALID,42,VALID,0.775195,
2003-03-18, 02:07:00,VALID,919.658,VALID,0,VALID,99.8578,VALID,-0.101885,VALID,18.877,VALID,143,VALID,0.850781,
2003-03-18, 02:08:00,VALID,919.631,VALID,0,VALID,99.8515,VALID,-0.101885,VALID,18.8579,VALID,141,VALID,0.428602,
2003-03-18, 02:09:00,VALID,919.624,VALID,0,VALID,99.8591,VALID,-0.0679233,VALID,18.8482,VALID,141,VALID,0.350911,
2003-03-18, 02:10:00,VALID,919.619,VALID,0,VALID,99.8629,VALID,-0.0679233,VALID,18.8449,VALID,144,VALID,0.295956,
2003-03-18, 02:11:00,VALID,919.609,VALID,0,VALID,99.8604,VALID,-0.0849042,VALID,18.8486,VALID,146,VALID,0.111384,
2003-03-18, 02:12:00,VALID,919.612,VALID,0,VALID,99.8756,VALID,-0.0509425,VALID,18.8482,VALID,146,VALID,0.263622,
2003-03-18, 02:13:00,VALID,919.61,VALID,0,VALID,99.8744,VALID,-0.0849042,VALID,18.877,VALID,146,VALID,0.244721,
2003-03-18, 02:14:00,VALID,919.626,VALID,0,VALID,99.8782,VALID,-0.0679233,VALID,18.8994,VALID,146,VALID,0.353413,
2003-03-18, 02:15:00,VALID,919.63,VALID,0,VALID,99.8782,VALID,-0.0509425,VALID,18.9331,VALID,146,VALID,0.227232,
2003-03-18, 02:16:00,VALID,919.635,VALID,0,VALID,99.8884,VALID,-0.0509425,VALID,18.9421,VALID,146,VALID,0.386018,
2003-03-18, 02:17:00,VALID,919.632,VALID,0,VALID,99.8807,VALID,-0.0679233,VALID,18.9523,VALID,146,VALID,0.326231,
2003-03-18, 02:18:00,VALID,919.616,VALID,0,VALID,99.8934,VALID,-0.0679233,VALID,18.9612,VALID,146,VALID,0.107422,
2003-03-18, 02:19:00,VALID,919.621,VALID,0,VALID,99.8909,VALID,-0.0849042,VALID,18.9682,VALID,146,VALID,0,
2003-03-18, 02:20:00,VALID,919.616,VALID,0,VALID,99.8795,VALID,-0.0339617,VALID,18.9582,VALID,146,VALID,0,
2003-03-18, 02:21:00,VALID,919.612,VALID,0,VALID,99.8871,VALID,-0.0849042,VALID,18.9451,VALID,146,VALID,0.00117188,
2003-03-18, 02:22:00,VALID,919.597,VALID,0,VALID,99.8909,VALID,0.0339617,VALID,18.9185,VALID,146,VALID,0,
2003-03-18, 02:23:00,VALID,919.596,VALID,0,VALID,99.8896,VALID,0.0339617,VALID,18.9054,VALID,146,VALID,0,
2003-03-18, 02:24:00,VALID,919.573,VALID,0,VALID,99.8934,VALID,0.0339617,VALID,18.9245,VALID,146,VALID,0,
2003-03-18, 02:25:00,VALID,919.55,VALID,0,VALID,99.8795,VALID,0.0339617,VALID,18.9312,VALID,146,VALID,0,
2003-03-18, 02:26:00,VALID,919.521,VALID,0,VALID,99.8909,VALID,0.0169808,VALID,18.9767,VALID,146,VALID,0,
2003-03-18, 02:27:00,VALID,919.487,VALID,0,VALID,99.8922,VALID,0.0339617,VALID,18.9665,VALID,146,VALID,0,
2003-03-18, 02:28:00,VALID,919.476,VALID,0,VALID,99.8934,VALID,0.0169808,VALID,18.9727,VALID,146,VALID,0,
2003-03-18, 02:29:00,VALID,919.457,VALID,0,VALID,99.8807,VALID,0.0339617,VALID,18.9665,VALID,146,VALID,0.0462054,
2003-03-18, 02:30:00,VALID,919.462,VALID,0.2,VALID,99.8858,VALID,0.0509425,VALID,18.96,VALID,146,VALID,0.0753205,
2003-03-18, 02:31:00,VALID,919.468,VALID,0,VALID,99.8884,VALID,0.0679233,VALID,18.9566,VALID,139,VALID,0.31108,
2003-03-18, 02:32:00,VALID,919.476,VALID,0,VALID,99.8909,VALID,0.0679233,VALID,18.9437,VALID,121,VALID,0.564887,
2003-03-18, 02:33:00,VALID,919.487,VALID,0,VALID,99.8909,VALID,0.0339617,VALID,18.9337,VALID,107,VALID,0.724507,
2003-03-18, 02:34:00,VALID,919.482,VALID,0,VALID,99.8884,VALID,0.0339617,VALID,18.9434,VALID,98,VALID,0.729492,
2003-03-18, 02:35:00,VALID,919.502,VALID,0,VALID,99.8858,VALID,0.0169808,VALID,18.9504,VALID,85,VALID,0.551953,
2003-03-18, 02:36:00,VALID,919.5,VALID,0,VALID,99.8833,VALID,0.0679233,VALID,18.9471,VALID,77,VALID,0.555556,
2003-03-18, 02:37:00,VALID,919.502,VALID,0,VALID,99.8884,VALID,0.0509425,VALID,18.96,VALID,53,VALID,0.50046,
2003-03-18, 02:38:00,VALID,919.522,VALID,0,VALID,99.8973,VALID,0.0679233,VALID,18.9603,VALID,56,VALID,0.501379,
2003-03-18, 02:39:00,VALID,919.517,VALID,0,VALID,99.8909,VALID,0.0169808,VALID,18.9603,VALID,63,VALID,0.444196,
2003-03-18, 02:40:00,VALID,919.517,VALID,0,VALID,99.9049,VALID,0.0509425,VALID,18.9469,VALID,49,VALID,0.381611,
2003-03-18, 02:41:00,VALID,919.518,VALID,0,VALID,99.8934,VALID,0.0339617,VALID,18.9603,VALID,38,VALID,0.388936,
2003-03-18, 02:42:00,VALID,919.498,VALID,0,VALID,99.8896,VALID,0,VALID,18.9633,VALID,38,VALID,0.0148026,
2003-03-18, 02:43:00,VALID,919.486,VALID,0,VALID,99.8896,VALID,0.0679233,VALID,18.9538,VALID,38,VALID,0.00334821,
2003-03-18, 02:44:00,VALID,919.466,VALID,0,VALID,99.8934,VALID,0.0509425,VALID,18.931,VALID,56,VALID,0.301282,
2003-03-18, 02:45:00,VALID,919.456,VALID,0,VALID,99.8833,VALID,0.0169808,VALID,18.9146,VALID,110,VALID,0.388021,
2003-03-18, 02:46:00,VALID,919.451,VALID,0,VALID,99.8871,VALID,0.0339617,VALID,18.9118,VALID,141,VALID,0.415148,
2003-03-18, 02:47:00,VALID,919.464,VALID,0,VALID,99.9036,VALID,0.0339617,VALID,18.9021,VALID,141,VALID,0.525288,
2003-03-18, 02:48:00,VALID,919.459,VALID,0,VALID,99.9074,VALID,0.0509425,VALID,18.9081,VALID,153,VALID,0.638477,
2003-03-18, 02:49:00,VALID,919.455,VALID,0,VALID,99.9011,VALID,0.0339617,VALID,18.9404,VALID,152,VALID,0.548047,
2003-03-18, 02:50:00,VALID,919.459,VALID,0,VALID,99.9074,VALID,0.0339617,VALID,18.97,VALID,157,VALID,0.500434,
2003-03-18, 02:51:00,VALID,919.456,VALID,0,VALID,99.9062,VALID,0.0509425,VALID,18.9891,VALID,147,VALID,0.57921,
2003-03-18, 02:52:00,VALID,919.448,VALID,0,VALID,99.896,VALID,-0.0169808,VALID,19.003,VALID,161,VALID,0.431756,
2003-03-18, 02:53:00,VALID,919.43,VALID,0,VALID,99.8909,VALID,-0.0169808,VALID,19.0164,VALID,171,VALID,0.428795,
2003-03-18, 02:54:00,VALID,919.415,VALID,0,VALID,99.8922,VALID,-0.0169808,VALID,19.0323,VALID,164,VALID,0.480769,
2003-03-18, 02:55:00,VALID,919.412,VALID,0,VALID,99.8998,VALID,-0.0509425,VALID,19.042,VALID,153,VALID,0.475507,
2003-03-18, 02:56:00,VALID,919.405,VALID,0,VALID,99.8896,VALID,0,VALID,19.0679,VALID,151,VALID,0.55037,
2003-03-18, 02:57:00,VALID,919.403,VALID,0,VALID,99.8896,VALID,0,VALID,19.0813,VALID,154,VALID,0.200446,
2003-03-18, 02:58:01,VALID,919.391,VALID,0,VALID,99.8947,VALID,-0.0339617,VALID,19.087,VALID,154,VALID,0.260617,
2003-03-18, 02:59:00,VALID,919.376,VALID,0,VALID,99.896,VALID,0,VALID,19.0965,VALID,154,VALID,0.301847,
2003-03-18, 03:00:00,VALID,919.372,VALID,0,VALID,99.8985,VALID,0,VALID,19.0965,VALID,158,VALID,0.459852,
2003-03-18, 03:01:00,VALID,919.351,VALID,0,VALID,99.8871,VALID,-0.0169808,VALID,19.09,VALID,168,VALID,0.494449,
2003-03-18, 03:02:00,VALID,919.344,VALID,0,VALID,99.8947,VALID,-0.0169808,VALID,19.0902,VALID,168,VALID,0.425781,
2003-03-18, 03:03:00,VALID,919.344,VALID,0,VALID,99.8858,VALID,0,VALID,19.1066,VALID,169,VALID,0.388477,
2003-03-18, 03:04:00,VALID,919.341,VALID,0,VALID,99.8947,VALID,0,VALID,19.1034,VALID,169,VALID,0.077908,
2003-03-18, 03:05:00,VALID,919.348,VALID,0,VALID,99.896,VALID,-0.0169808,VALID,19.0935,VALID,169,VALID,0.00108507,
2003-03-18, 03:06:00,VALID,919.353,VALID,0,VALID,99.8833,VALID,-0.0169808,VALID,19.087,VALID,169,VALID,0,
2003-03-18, 03:07:00,VALID,919.369,VALID,0,VALID,99.9074,VALID,0,VALID,19.1002,VALID,169,VALID,0,
2003-03-18, 03:08:00,VALID,919.362,VALID,0,VALID,99.8934,VALID,-0.0169808,VALID,19.1069,VALID,169,VALID,0,
2003-03-18, 03:09:00,VALID,919.371,VALID,0,VALID,99.896,VALID,-0.0339617,VALID,19.1163,VALID,169,VALID,0.0304054,
2003-03-18, 03:10:01,VALID,919.384,VALID,0,VALID,99.9011,VALID,-0.0509425,VALID,19.1297,VALID,169,VALID,0,
2003-03-18, 03:11:00,VALID,919.379,VALID,0,VALID,99.8998,VALID,-0.0339617,VALID,19.1392,VALID,169,VALID,0,
2003-03-18, 03:12:00,VALID,919.396,VALID,0,VALID,99.8973,VALID,0,VALID,19.1325,VALID,169,VALID,0.132612,
2003-03-18, 03:13:00,VALID,919.405,VALID,0,VALID,99.8947,VALID,-0.0169808,VALID,19.1223,VALID,69,VALID,0.400805,
2003-03-18, 03:14:00,VALID,919.409,VALID,0,VALID,99.8985,VALID,-0.0169808,VALID,19.1032,VALID,62,VALID,0.514757,
2003-03-18, 03:15:00,VALID,919.418,VALID,0,VALID,99.896,VALID,-0.0169808,VALID,19.0577,VALID,71,VALID,0.584704,
2003-03-18, 03:16:00,VALID,919.418,VALID,0,VALID,99.896,VALID,-0.0169808,VALID,19.003,VALID,91,VALID,0.626758,
2003-03-18, 03:17:00,VALID,919.421,VALID,0,VALID,99.8934,VALID,0,VALID,18.9647,VALID,101,VALID,0.686523,
2003-03-18, 03:18:00,VALID,919.411,VALID,0,VALID,99.8973,VALID,-0.0509425,VALID,18.9386,VALID,101,VALID,0.670573,
2003-03-18, 03:19:00,VALID,919.407,VALID,0,VALID,99.9087,VALID,0,VALID,18.9319,VALID,120,VALID,0.38737,
2003-03-18, 03:20:00,VALID,919.412,VALID,0,VALID,99.9049,VALID,-0.0679233,VALID,18.9419,VALID,96,VALID,0.255515,
2003-03-18, 03:21:00,VALID,919.423,VALID,0,VALID,99.91,VALID,-0.0849042,VALID,18.958,VALID,98,VALID,0.303348,
2003-03-18, 03:22:01,VALID,919.425,VALID,0,VALID,99.9074,VALID,-0.0169808,VALID,18.9776,VALID,98,VALID,0.577324,
2003-03-18, 03:23:00,VALID,919.433,VALID,0,VALID,99.9023,VALID,-0.101885,VALID,18.9943,VALID,98,VALID,0.674831,
2003-03-18, 03:24:01,VALID,919.437,VALID,0,VALID,99.9049,VALID,-0.101885,VALID,18.9873,VALID,86,VALID,0.86616,
2003-03-18, 03:25:01,VALID,919.448,VALID,0,VALID,99.8998,VALID,-0.0339617,VALID,18.9938,VALID,89,VALID,1.18973,
2003-03-18, 03:26:01,VALID,919.451,VALID,0,VALID,99.9049,VALID,-0.0509425,VALID,19.0037,VALID,87,VALID,1.24659,
2003-03-18, 03:27:01,VALID,919.462,VALID,0,VALID,99.896,VALID,-0.0679233,VALID,18.997,VALID,92,VALID,0.882339,
2003-03-18, 03:28:00,VALID,919.464,VALID,0,VALID,99.9049,VALID,-0.0509425,VALID,18.997,VALID,106,VALID,0.730035,
2003-03-18, 03:29:01,VALID,919.466,VALID,0,VALID,99.9049,VALID,-0.0509425,VALID,19.0067,VALID,114,VALID,0.188939,
2003-03-18, 03:30:00,VALID,919.475,VALID,0,VALID,99.9062,VALID,-0.0849042,VALID,19.0129,VALID,100,VALID,0.353906,
2003-03-18, 03:31:00,VALID,919.469,VALID,0,VALID,99.9087,VALID,-0.0339617,VALID,19.0259,VALID,75,VALID,0.291797,
2003-03-18, 03:32:00,VALID,919.487,VALID,0,VALID,99.8985,VALID,-0.0509425,VALID,19.0418,VALID,48,VALID,0.374783,
2003-03-18, 03:33:01,VALID,919.491,VALID,0,VALID,99.9036,VALID,-0.0509425,VALID,19.0644,VALID,55,VALID,0.447049,
2003-03-18, 03:34:00,VALID,919.511,VALID,0,VALID,99.9023,VALID,-0.0169808,VALID,19.0681,VALID,57,VALID,0.699678,